Simultaneous Nadir Overpasses (SNOs) Predictions

Prediction of SNOs between GOES-17 and METOP-C Satellite Orbit:

Table of predicted SNOs for the next 14.0 days since TLE Epoch: 10/25/2019
Index Date Time (GOES-17) GOES-17 Lat,Lon METOP-C Lat,Lon Distance(km) Time Diff (sec)
1 10/26/2019 06:51:33 0.00,-137.20 -0.55,-139.80 295.24 80
2 10/27/2019 06:28:13 0.00,-137.20 0.51,-134.79 273.63 80
3 10/28/2019 18:47:05 -0.00,-137.20 0.49,-139.36 246.78 80
4 10/29/2019 18:29:05 -0.00,-137.19 -0.63,-134.37 321.65 80
5 10/31/2019 06:45:25 0.01,-137.17 -0.38,-138.96 203.64 80
6 11/01/2019 06:27:25 0.01,-137.16 0.74,-133.97 364.38 80
7 11/02/2019 18:46:05 -0.01,-137.15 0.27,-138.53 157.22 67
8 11/03/2019 18:22:57 -0.00,-137.14 -0.79,-133.53 410.73 80
9 11/05/2019 06:44:36 -0.01,-137.11 -0.21,-138.12 115.04 80
10 11/06/2019 06:21:16 -0.01,-137.10 0.85,-133.12 452.59 80
11 11/07/2019 18:42:48 0.01,-137.08 0.17,-137.68 69.69 80




NCC Satellite Simultaneous Nadir Overpasses (SNOs) Prediction Service
